"Pseudo-MPEC" for CC7U7Y2

Created 2024 Oct 31 23:31:13 UT using Find_Orb

Click here for an explanation of pseudo-MPECs

 
 Astrometry: 
     CC7U7Y2*1C2024 10 31.24234001 15 18.529+00 12 08.82   ~AV6V 20.67GVNEOCPG96
     CC7U7Y2 1C2024 10 31.24750601 15 23.036+00 11 23.53   ~AV6V 20.50GVNEOCPG96
     CC7U7Y2 1C2024 10 31.25268301 15 27.533+00 10 37.81   ~AV6V 20.66GVNEOCPG96
     CC7U7Y2 1C2024 10 31.25787101 15 32.087+00 09 52.16   ~AV6V 20.53GVNEOCPG96
     CC7U7Y2 KC2024 10 31.37016801 17 14.737-00 07 11.32   ~AV9H 20.64GVNEOCPI52
     CC7U7Y2 KC2024 10 31.37138301 17 15.932-00 07 21.83   ~AV9H 20.86GVNEOCPI52
     CC7U7Y2 KC2024 10 31.37260001 17 17.113-00 07 34.00   ~AV9H 21.05GVNEOCPI52
     CC7U7Y2 KC2024 10 31.37382501 17 18.294-00 07 45.16   ~AV9H 20.50GVNEOCPI52
     CC7U7Y2 KB2024 10 31.81230901 27 04.90 -01 26 19.5    ~AVKl 20.1 GVNEOCPI93
     CC7U7Y2 hC2024 10 31.82278901 27 13.20 -01 28 31.0    ~AVKH 20.0 GVNEOCPL01
     CC7U7Y2 hC2024 10 31.82378101 27 14.48 -01 28 42.9    ~AVKH 20.3 GVNEOCPL01
     CC7U7Y2 hC2024 10 31.82526701 27 16.38 -01 29 01.4    ~AVKH 20.3 GVNEOCPL01
     CC7U7Y2 hC2024 10 31.82712301 27 18.74 -01 29 23.2    ~AVKH 20.4 GVNEOCPL01
     CC7U7Y2 KB2024 10 31.82898001 27 26.55 -01 29 38.8    ~AVKl 19.8 GVNEOCPI93
     CC7U7Y2 IC2024 10 31.82986601 27 22.31 -01 29 56.8    ~AVKH 19.9 GVNEOCPL01
     CC7U7Y2 KB2024 10 31.84516301 27 47.62 -01 32 53.9    ~AVKl 20.4 GVNEOCPI93
     CC7U7Y2 KC2024 10 31.87903301 28 26.96 -01 39 45.9    ~AVMH 19.9 GVNEOCP104
     CC7U7Y2 KC2024 10 31.88144801 28 29.43 -01 40 29.1    ~AVM2 20.4 GVNEOCPK51
     CC7U7Y2 KC2024 10 31.88628801 28 35.75 -01 41 29.8    ~AVM2 20.0 GVNEOCPK51
     CC7U7Y2 KC2024 10 31.89112601 28 42.06 -01 42 29.8    ~AVM2 20.2 GVNEOCPK51
     CC7U7Y2 KC2024 10 31.89549601 28 48.33 -01 43 10.3    ~AVMH       VNEOCP104

Station data:
(104) San Marcello Pistoiese  (N44.064178 E10.803750)  Italy.  Observers P.
   Bacci, M. Maestripieri. Measurers P. Bacci, L. Tesi, G. Fagioli. 0.60-m
   reflector + CCD.
(G96) Mt. Lemmon Survey  (N32.442729 W110.788720)  US/Arizona.  Observer E.
   J. Christensen. 1.5-m reflector + 10K CCD.
(I52) Steward Observatory, Mt. Lemmon Station  (N32.442570 W110.788920)
   US/Arizona.  Observers T. A. Pruyne, B. M. Africano, E. J. Christensen, G.
   A. Farneth, D. C. Fuls, A. R. Gibbs, A. D. Grauer, H. Gröller, J. A.
   Johnson, R. A. Kowalski, S. M. Larson, G. J. Leonard, D. Rankin, R. L.
   Seaman, F. C. Shelly, K. W. Wierzchoś. 1.0-m prime focus + CCD.
(I93) St Pardon de Conques  (N44.558670 W0.202960)  France.  Observers F.
   Losse, W. D'Anna. Measurer F. Losse. 0.40-m f/3.7 reflector + CCD.
(K51) Osservatorio del Celado, Castello Tesino  (N46.029480 E11.657890)
   Italy.  Observers G. Favero, R. Furgoni. Measurer R. Furgoni. 0.80-m f/4
   reflector + CCD.
(L01) Višnjan Observatory, Tičan  (N45.290897 E13.749300)  Croatia.
   Observers K. Korlević, D. Pujagic, V. Dobos. Measurers D. Pujagic, K.
   Korlević. 1.0-m f/2.9 reflector + CCD.

Orbital elements:  CC7U7Y2
   Perihelion 2024 Dec 2.85061 +/- 0.00595 TT = 20:24:53 (JD 2460647.35061)
Epoch 2024 Nov  1.0 TT = JDT 2460615.5   Earth MOID: 0.0050   Ma: 0.0550
M 345.98312243 +/- 0.022            (J2000 ecliptic)             AutoNEOCP
n   0.44008187 +/- 0.000673         Peri.  224.61026 +/- 0.017
a   1.71177651 +/- 0.00175          Node   213.74775 +/- 0.0044
e   0.4548875 +/- 0.000609          Incl.    1.93272 +/- 0.0022
P   2.240/818.014d         H 28.52  G  0.15   U  7.8
q 0.93311067 +/- 9.94e-5    Q 2.49044235 +/- 0.00358
From 21 observations 2024 Oct. 31 (15.7 hr); mean residual 0".32
Residuals in arcseconds: 
241031 G96  .42-  .15-    241031 I52  .18-  .11+    241031 L01  .80+  .85-    
241031 G96  .04+  .02+    241031 I93  .13+  .16-    241031 I93  .03-  .32+    
241031 G96  .05+  .03-    241031 L01  .40-  .05+    241031 104  .43+  .37+    
241031 G96  .58+  .21+    241031 L01  .18-  .04+    241031 K51  .34-  .62+    
241031 I52  .14-  .33-    241031 L01  .11-  .66-    241031 K51  .06-  .16-    
241031 I52  .07+  .55+    241031 L01  .23-  .19-    241031 K51  .09-  .11-    
241031 I52  .02+  .22-    241031 I93  .29-  .02+    241031 104  .23+  .12+    

Ephemerides (geocentric):
Date (UTC) HH   RA             Dec           delta  r     elong  mag " sig PA
---- --------  ------------   ------------  ------ ------ -----  --- --------
2024 11 01 00  01 31 22.782   -01 58 24.58  .01479 1.0064 158.9 20.4 .675 140
2024 11 01 01  01 32 28.843   -02 07 35.40  .01460 1.0062 158.9 20.4 .795 137
2024 11 01 02  01 33 36.588   -02 16 59.82  .01442 1.0060 158.9 20.4 .931 134
2024 11 01 03  01 34 46.076   -02 26 38.30  .01424 1.0058 158.9 20.3 1.08 132
2024 11 01 04  01 35 57.373   -02 36 31.32  .01406 1.0057 158.9 20.3 1.26 130
2024 11 01 05  01 37 10.546   -02 46 39.39  .01388 1.0055 158.9 20.3 1.45 128
2024 11 01 06  01 38 25.664   -02 57 03.01  .01370 1.0053 158.9 20.2 1.66 127
2024 11 01 07  01 39 42.802   -03 07 42.73  .01352 1.0051 158.9 20.2 1.89 126
2024 11 01 08  01 41 02.036   -03 18 39.10  .01334 1.0049 158.9 20.2 2.14 125
2024 11 01 09  01 42 23.448   -03 29 52.71  .01317 1.0048 158.9 20.2 2.42 124
2024 11 01 10  01 43 47.122   -03 41 24.16  .01299 1.0046 158.9 20.1 2.72 124
2024 11 01 11  01 45 13.146   -03 53 14.06  .01281 1.0044 158.8 20.1 3.05 123
2024 11 01 12  01 46 41.615   -04 05 23.08  .01264 1.0042 158.8 20.1 3.40 123
2024 11 01 13  01 48 12.625   -04 17 51.89  .01246 1.0041 158.8 20.0 3.79 122
2024 11 01 14  01 49 46.279   -04 30 41.17  .01229 1.0039 158.7 20.0 4.21 122
2024 11 01 15  01 51 22.684   -04 43 51.65  .01211 1.0037 158.7 20.0 4.66 121
2024 11 01 16  01 53 01.953   -04 57 24.08  .01194 1.0035 158.6 19.9 5.15 121
2024 11 01 17  01 54 44.205   -05 11 19.23  .01177 1.0033 158.5 19.9 5.69 121
2024 11 01 18  01 56 29.563   -05 25 37.88  .01160 1.0032 158.4 19.9 6.26 121
2024 11 01 19  01 58 18.159   -05 40 20.88  .01143 1.0030 158.3 19.9 6.87 120
2024 11 01 20  02 00 10.129   -05 55 29.05  .01126 1.0028 158.2 19.8 7.54 120
2024 11 01 21  02 02 05.617   -06 11 03.27  .01109 1.0026 158.1 19.8 8.25 120
2024 11 01 22  02 04 04.774   -06 27 04.43  .01092 1.0025 158.0 19.8 9.02 120
2024 11 01 23  02 06 07.759   -06 43 33.44  .01076 1.0023 157.8 19.7 9.85 120
2024 11 02 00  02 08 14.738   -07 00 31.24  .01059 1.0021 157.7 19.7 10.7 119
2024 11 02 01  02 10 25.886   -07 17 58.77  .01043 1.0019 157.5 19.7 11.7 119
2024 11 02 02  02 12 41.386   -07 35 57.01  .01027 1.0018 157.3 19.7 12.7 119
2024 11 02 03  02 15 01.431   -07 54 26.92  .01010 1.0016 157.0 19.6 13.8 119
2024 11 02 04  02 17 26.222   -08 13 29.50  .00994 1.0014 156.8 19.6 15.0 119
2024 11 02 05  02 19 55.972   -08 33 05.73  .00979 1.0012 156.5 19.6 16.3 119
2024 11 02 06  02 22 30.901   -08 53 16.58  .00963 1.0011 156.2 19.5 17.6 118
2024 11 02 07  02 25 11.241   -09 14 03.04  .00947 1.0009 155.9 19.5 19.1 118
2024 11 02 08  02 27 57.235   -09 35 26.05  .00932 1.0007 155.6 19.5 20.6 118
2024 11 02 09  02 30 49.137   -09 57 26.52  .00917 1.0005 155.2 19.5 22.3 118
2024 11 02 10  02 33 47.210   -10 20 05.35  .00902 1.0004 154.8 19.4 24.0 118
2024 11 02 11  02 36 51.731   -10 43 23.36  .00887 1.0002 154.4 19.4 25.9 118
2024 11 02 12  02 40 02.985   -11 07 21.30  .00872 1.0000 153.9 19.4 27.9 117
2024 11 02 13  02 43 21.270   -11 31 59.84  .00858 0.9998 153.4 19.4 30.1 117
2024 11 02 14  02 46 46.894   -11 57 19.54  .00844 0.9997 152.9 19.4 32.3 117
2024 11 02 15  02 50 20.176   -12 23 20.84  .00830 0.9995 152.3 19.3 34.8 117
2024 11 02 16  02 54 01.443   -12 50 04.01  .00816 0.9993 151.7 19.3 37.3 117
2024 11 02 17  02 57 51.031   -13 17 29.14  .00802 0.9992 151.0 19.3 40.1 116
2024 11 02 18  03 01 49.284   -13 45 36.12  .00789 0.9990 150.4 19.3 43.0 116
2024 11 02 19  03 05 56.552   -14 14 24.59  .00776 0.9988 149.6 19.3 46.1 116
2024 11 02 20  03 10 13.188   -14 43 53.89  .00764 0.9986 148.9 19.3 49.3 115
2024 11 02 21  03 14 39.545   -15 14 03.04  .00751 0.9985 148.0 19.2 52.7 115
2024 11 02 22  03 19 15.977   -15 44 50.72  .00739 0.9983 147.2 19.2 56.4 115
2024 11 02 23  03 24 02.831   -16 16 15.18  .00728 0.9981 146.3 19.2 60.2 115